[Date Prev][Date Next][Thread Prev][Thread Next] - [Date Index][Thread Index][Author Index]

KEPS



ISS (ZARYA)             
1 25544U 98067A   07220.88563398  .00008468  00000-0  56993-4 0  7430
2 25544  51.6320 191.7165 0008104 217.9929 243.8684 15.76137509499091
STS 118                 
1 32008U 07035A   07220.96978502 -.00000458  11337-4  44973-5 0    29
2 32008  51.6230 191.3661 0066241 180.9148 357.4615 16.00252620    04

----
Sent via sarex@amsat.org. Opinions expressed are those of the author.
Not an AMSAT member? Join now to support the amateur satellite program!
Subscription settings: http://amsat.org/mailman/listinfo/sarex



AMSAT Top AMSAT Home